Powrót do katalogu

QIANFAN-158

AktywnyŁącznośćPO
NORAD 69117·PAYLOAD·🇨🇳 China

Wystrzelony May 17, 2026 z Wenchang Space Launch Site

Loading…

Następne Przeloty (najbliższe 24 godziny)

TLE

ŚwieżeSource: Space-Track

Epoka: Sep 14, 2026, 21:05 UTC

1 69117U 26108P   26257.87894343  .00000106  00000-0  14627-3 0  9999
2 69117  89.0187  13.0316 0001831 105.1210 255.0143 13.51023016 16588

Śledź QIANFAN-158 w czasie rzeczywistym z AllMySat

Download on the App Store